This is the latest recevied weather packets stored in our database for station/object HUGOCO. If no packets are shown the sender has not sent any weather packets the latest 10 day(s).
| Time | Temp. | Humidity | Pressure | Rain* | Wind** | Luminosity | Snow |
|---|---|---|---|---|---|---|---|
| 1777693570 | 10.56° C | 36% | 1023.2 hPa | 0 mm | - | - | - |
| 1777693270 | 10.56° C | 36% | 1023.1 hPa | 0 mm | - | - | - |
| 1777692970 | 10.56° C | 36% | 1023.1 hPa | 0 mm | - | - | - |
| 1777692670 | 11.11° C | 36% | 1022.9 hPa | 0 mm | - | - | - |
| 1777692370 | 11.11° C | 35% | 1022.9 hPa | 0 mm | - | - | - |
| 1777692070 | 11.11° C | 35% | 1022.8 hPa | 0 mm | - | - | - |
| 1777691770 | 11.67° C | 34% | 1022.8 hPa | 0 mm | - | - | - |
| 1777691655 | 11.67° C | 33% | 1022.7 hPa | 0 mm | - | - | - |
| 1777691470 | 11.67° C | 33% | 1022.7 hPa | 0 mm | - | - | - |
| 1777691170 | 11.67° C | 33% | 1022.7 hPa | 0 mm | - | - | - |
| 1777690870 | 12.22° C | 33% | 1022.6 hPa | 0 mm | - | - | - |
| 1777690570 | 12.22° C | 32% | 1022.7 hPa | 0 mm | - | - | - |
| 1777690270 | 12.22° C | 33% | 1022.7 hPa | 0 mm | - | - | - |
| 1777689970 | 12.22° C | 33% | 1022.5 hPa | 0 mm | - | - | - |
| 1777689852 | 12.22° C | 34% | 1022.5 hPa | 0 mm | - | - | - |
| 1777689670 | 12.22° C | 34% | 1022.5 hPa | 0 mm | - | - | - |
| 1777689370 | 12.22° C | 33% | 1022.5 hPa | 0 mm | - | - | - |
| 1777689070 | 11.67° C | 33% | 1022.4 hPa | 0 mm | - | - | - |
| 1777688770 | 11.67° C | 33% | 1022.4 hPa | 0 mm | - | - | - |
| 1777688470 | 12.22° C | 30% | 1022.4 hPa | 0 mm | - | - | - |
| 1777688170 | 12.78° C | 29% | 1022.2 hPa | 0 mm | - | - | - |
| 1777687870 | 12.78° C | 28% | 1022 hPa | 0 mm | - | - | - |
| 1777687570 | 12.78° C | 28% | 1022.1 hPa | 0 mm | - | - | - |
| 1777687270 | 12.78° C | 28% | 1022 hPa | 0 mm | - | - | - |
| 1777686970 | 12.78° C | 28% | 1022.1 hPa | 0 mm | - | - | - |
* Rain latest hour (hover to see other rain measurements)
** Current wind speed in m/s (hover to see current wind gust speed)